Wind_Speed
4 4 4 5 6 6 6 6 6 6 5 5 5 4 4 3 3 3 3 3 4 4 5 5 5 6 8 10 11 13 14 13 12 12 11 10 10 10 11 13 15 16 13 9 8 11 14 16 19 21 22 21 20 20 20 18 19 19 19 20 23 22 21
3 4 5 6 7 7 7 7 7 6 6 5 5 5 5 4 4 4 3 3 3 3 3 3 4 4 5 7 8 10 12 13 13 13 13 12 13 13 12 13 15 17 15 12 13 15 15 15 17 18 20 21 22 23 22 20 20 19 18 18 18 19 19
4 4 5 6 7 6 5 4 3 2 2 2 2 3 3 4 5 5 4 4 3 3 3 3 3 3 4 5 6 7 9 11 12 13 13 13 14 14 14 15 16 17 16 15 17 19 18 18 19 18 19 20 20 22 23 22 21 21 20 18 17 16 17
4 4 5 6 5 3 1 1 2 2 2 2 3 2 1 1 3 4 5 5 5 4 4 4 3 3 3 4 5 6 7 8 9 10 10 11 12 13 13 15 16 17 17 17 20 21 21 20 21 21 19 19 19 20 20 21 21 20 20 19 18 18 19
5 4 4 4 2 0 1 2 3 4 5 5 5 5 5 3 1 2 3 4 5 5 5 5 4 4 4 4 5 5 6 7 7 7 7 8 9 10 11 12 13 14 15 16 18 19 21 21 22 22 22 22 22 20 19 20 19 19 21 21 19 20 21
6 4 3 3 1 0 1 2 3 4 6 7 7 7 7 6 5 3 2 2 3 4 4 5 5 5 5 5 5 6 6 7 7 7 7 7 8 8 9 10 10 11 12 13 14 15 17 18 19 20 21 22 23 22 21 21 20 20 21 22 23 23 22
7 5 3 3 2 2 1 1 2 4 6 7 8 9 9 8 7 6 5 4 3 3 3 3 4 4 5 6 6 6 7 7 8 9 9 9 9 9 10 10 10 11 11 11 12 12 13 14 15 16 16 18 18 18 17 17 18 17 14 16 19 21 21
7 5 4 4 4 4 3 2 1 1 4 5 7 9 9 9 9 9 8 7 6 5 4 3 3 2 3 4 5 6 6 7 8 9 10 11 12 12 12 12 13 13 13 13 13 13 13 13 14 14 14 14 14 14 13 12 14 14 13 15 17 17 19
10 8 6 6 6 6 5 4 3 2 1 3 5 6 7 8 9 9 9 9 8 7 6 5 4 4 3 3 3 3 4 5 6 6 8 9 11 12 13 14 14 15 15 15 15 15 15 15 15 15 15 15 15 14 14 13 13 14 15 17 16 16 18
13 12 10 9 8 8 8 7 6 5 4 2 1 2 4 5 6 7 7 8 9 9 8 8 7 6 6 5 5 5 5 4 5 5 5 6 7 9 11 12 13 14 15 15 15 16 16 16 16 16 16 16 16 16 16 16 15 15 17 17 16 16 19
15 15 14 13 12 12 11 10 9 8 7 6 4 2 1 1 2 3 4 5 6 6 7 7 8 8 8 8 8 8 7 7 7 7 6 6 6 6 7 8 10 11 12 13 14 14 14 15 15 15 15 15 15 15 16 16 15 16 18 19 18 19 22
18 18 18 17 17 16 14 13 12 12 11 9 8 6 5 4 3 2 2 3 3 4 4 5 6 7 8 9 10 10 10 10 10 10 10 9 9 8 7 7 7 8 10 10 11 12 13 13 13 13 14 14 14 14 14 15 14 14 15 16 17 19 22
21 20 21 21 20 19 18 16 15 15 15 13 12 10 9 8 7 6 6 5 5 5 5 5 6 6 7 7 9 10 11 11 11 12 13 13 13 12 11 11 10 10 10 10 10 11 11 12 12 13 13 13 14 14 15 15 15 14 14 15 16 17 19
24 23 23 23 22 21 20 19 18 18 18 17 16 14 13 12 11 10 10 9 9 9 8 9 9 9 9 8 9 10 11 12 12 12 13 13 14 15 15 14 14 14 14 13 13 13 13 13 13 14 14 15 16 16 17 18 18 17 16 16 16 16 17
27 27 27 26 25 24 23 22 20 19 21 21 20 18 17 16 15 14 14 14 13 12 12 12 12 12 12 12 11 12 13 13 13 13 14 14 14 14 15 15 15 15 16 16 16 17 17 16 16 17 17 17 18 19 20 20 21 21 19 18 18 18 18
30 30 29 28 28 28 27 26 23 21 22 22 23 23 21 19 18 18 18 18 17 16 15 15 15 16 16 16 15 15 15 16 16 16 16 16 16 15 15 16 15 15 16 17 17 18 19 19 20 20 20 20 20 21 22 22 23 23 22 21 20 20 20
31 32 32 32 32 31 30 29 27 25 24 24 24 25 24 23 22 21 20 20 20 20 19 19 19 19 19 19 18 17 18 19 19 19 19 19 19 19 18 18 18 17 16 16 17 18 20 21 22 22 23 23 24 24 24 24 24 25 24 23 22 22 22
27 30 32 34 34 34 32 30 29 29 27 26 26 26 26 26 25 25 23 22 22 23 24 23 22 22 22 22 21 20 20 21 22 22 23 23 23 22 22 21 21 21 20 19 18 19 20 21 22 23 24 25 26 27 27 27 27 28 27 27 26 26 25
27 27 29 30 31 35 34 29 27 29 29 29 30 29 27 27 27 27 27 26 25 26 27 27 26 25 25 25 24 24 24 24 24 24 25 25 25 25 24 24 24 24 23 23 22 21 21 22 22 23 24 25 26 28 29 29 30 31 31 30 30 29 28
31 31 31 32 32 31 28 24 26 30 32 33 34 32 28 27 28 30 30 30 30 29 30 30 29 27 28 27 26 26 27 28 28 28 27 28 29 27 27 26 26 26 26 25 25 25 24 24 24 24 25 25 26 27 29 30 31 33 33 33 33 33 32
31 33 31 32 32 29 27 27 29 32 33 33 32 30 27 28 30 32 32 32 33 33 33 34 32 30 30 30 28 28 29 31 31 31 31 31 32 32 31 30 29 28 28 27 27 27 27 27 27 27 27 27 28 28 29 30 31 33 34 35 35 35 35
30 30 27 26 27 27 28 30 30 30 29 26 25 25 26 29 32 35 35 35 36 37 36 37 37 35 33 32 32 31 31 32 33 34 33 33 34 34 35 34 33 31 30 30 30 30 30 30 29 29 29 30 30 30 30 31 32 33 35 36 37 37 37
26 26 24 24 24 24 26 27 29 30 28 25 24 25 28 31 33 36 38 37 37 40 40 39 40 39 35 35 35 35 34 34 34 35 34 34 35 35 36 37 37 35 34 33 32 32 32 32 32 32 32 32 32 33 33 33 34 34 35 36 37 38 39
24 25 26 27 28 28 29 31 33 34 32 29 29 29 31 33 35 38 38 36 36 41 43 43 43 42 39 39 40 39 38 37 37 36 36 36 37 38 39 40 40 40 38 36 35 34 34 35 35 34 35 35 36 36 36 36 36 36 37 38 38 39 40
25 26 27 29 30 31 32 33 35 36 35 33 32 32 33 34 36 38 39 38 37 39 41 41 40 39 38 38 39 40 40 41 40 38 38 38 38 38 40 41 42 42 42 40 39 39 39 40 40 39 38 38 37 37 38 38 38 38 39 39 40 39 39
25 26 27 28 30 31 32 33 34 35 36 35 34 35 35 36 37 37 39 39 37 39 41 39 35 34 34 35 36 37 39 41 41 40 40 40 39 38 39 40 42 43 43 43 43 43 43 43 44 45 44 42 41 40 39 39 39 39 40 40 41 40 39
24 25 26 27 28 29 30 32 33 34 34 34 35 35 35 36 37 37 37 37 37 40 42 37 32 32 33 34 36 37 39 42 41 40 41 42 41 39 38 38 40 41 43 44 44 44 44 45 46 47 47 46 46 44 43 41 40 39 40 41 41 41 41
25 25 25 25 26 27 28 29 30 30 31 32 32 32 32 33 34 34 34 33 34 40 40 33 30 31 33 34 36 37 39 41 40 39 41 42 41 39 38 38 39 39 40 42 43 45 45 46 47 48 49 48 48 47 47 45 43 42 41 42 43 44 44
26 26 26 26 26 27 28 28 29 30 30 31 31 31 32 32 33 33 32 31 34 38 37 32 31 32 33 35 36 36 38 39 38 37 38 38 38 38 39 39 39 38 39 41 44 46 47 47 47 48 48 48 47 46 46 46 45 44 44 44 45 45 46
26 26 26 26 27 28 28 29 31 31 32 33 33 32 32 33 33 32 32 34 37 37 34 33 34 35 35 36 36 36 36 37 36 35 36 36 36 37 39 39 39 39 39 41 45 47 46 44 43 44 45 45 44 44 43 43 44 45 46 47 47 47 47
25 25 25 25 26 27 28 29 31 32 33 34 33 33 35 35 34 32 33 36 38 37 35 36 37 37 38 39 38 37 36 37 36 36 37 37 36 36 37 38 38 39 40 42 44 44 42 40 40 41 41 42 42 42 43 44 45 47 48 49 49 49 48
27 26 26 26 27 27 28 30 31 32 34 34 32 33 37 38 37 36 36 37 38 36 36 38 38 39 40 40 40 39 39 40 40 39 39 37 35 35 37 38 39 41 42 43 42 40 39 39 39 40 41 42 44 44 45 46 47 48 49 49 50 50 49
31 30 30 30 30 30 30 31 32 33 35 34 33 34 37 39 39 38 38 38 38 37 37 38 39 40 41 41 41 40 39 40 41 40 39 36 35 36 39 40 42 43 42 41 40 39 39 40 40 42 43 44 46 46 47 47 48 48 49 49 49 49 49
36 34 34 33 34 34 34 34 34 34 35 34 34 35 36 37 38 38 37 37 37 36 36 37 39 40 40 40 39 38 37 39 41 40 37 35 36 39 41 42 42 41 39 40 40 41 42 42 43 45 45 46 47 48 48 49 49 49 50 49 49 49 49
38 37 37 37 37 38 37 37 36 35 34 35 37 37 35 35 36 36 36 36 36 35 36 37 38 38 38 38 38 36 35 38 39 39 37 38 39 41 41 41 40 39 39 40 42 43 44 45 46 47 47 47 48 49 49 50 50 50 50 50 49 49 49
41 41 41 41 41 40 40 40 38 36 37 38 37 36 35 34 35 35 34 34 35 35 36 36 36 35 35 35 35 34 34 36 37 37 38 39 41 40 39 38 38 39 41 42 44 45 46 47 48 48 48 48 48 48 49 49 49 50 50 49 49 48 47
44 46 46 46 44 42 41 40 39 38 39 37 35 35 35 34 34 34 34 35 35 35 35 35 34 33 34 34 34 33 33 34 35 36 38 39 39 38 37 37 38 40 41 43 44 46 47 47 48 49 49 49 49 49 50 49 49 49 49 49 49 48 47
Wind_Direction
341 322 301 285 271 266 269 273 278 282 281 276 272 270 272 275 281 280 267 258 252 250 248 243 242 239 238 245 246 247 252 254 256 260 264 263 262 267 265 259 264 267 261 247 244 243 241 240 237 239 247 246 236 236 238 233 231 232 228 223 218 219 229
327 319 306 292 280 276 279 279 279 281 280 276 268 260 257 258 261 266 263 257 251 247 250 250 246 243 240 241 243 244 246 250 253 255 257 260 260 262 258 252 258 265 263 256 250 250 250 249 248 248 251 253 247 247 248 238 231 236 242 245 235 223 226
312 310 314 304 290 284 284 279 278 284 278 275 273 260 253 250 251 255 255 255 253 246 244 241 237 237 236 234 237 240 245 249 254 255 254 256 257 257 254 249 251 256 259 257 252 251 252 253 257 258 258 261 257 253 251 242 237 240 245 256 259 246 238
307 296 312 315 299 278 266 145 104 85 89 86 70 61 35 266 254 254 254 254 255 252 248 243 237 231 229 229 230 233 239 244 248 251 249 249 251 252 253 252 253 255 254 252 252 253 254 255 258 259 258 262 263 260 254 243 242 247 249 256 262 259 254
307 291 300 317 312 203 128 111 98 88 88 87 80 72 64 55 27 291 270 264 264 263 262 263 259 253 246 239 236 234 237 241 243 246 245 243 245 246 248 250 252 254 252 251 252 254 254 254 255 257 257 258 260 261 260 254 252 252 254 257 260 263 266
301 298 294 299 301 288 116 108 97 93 91 91 87 79 72 65 57 46 8 312 288 282 277 277 276 272 270 263 257 253 250 252 253 256 256 252 249 245 245 246 246 248 249 250 252 253 254 256 257 257 257 258 259 261 263 264 265 262 262 265 265 265 267
286 298 288 270 259 267 269 122 93 95 96 98 97 90 83 75 67 62 52 37 17 352 329 307 295 287 283 278 275 272 267 264 263 263 265 263 261 257 252 250 248 247 246 247 250 251 251 253 255 257 258 259 261 262 261 261 262 260 258 264 266 263 261
264 276 272 262 256 261 272 286 322 57 84 92 96 93 88 82 75 70 64 58 51 41 35 24 1 334 313 303 294 290 285 280 277 274 273 272 270 268 264 261 258 255 253 252 251 252 252 251 252 254 255 257 258 259 258 254 255 252 242 243 252 256 255
251 257 260 264 260 261 268 272 284 307 21 76 90 93 90 86 80 75 70 66 62 54 50 47 41 37 23 8 355 339 325 313 305 297 289 284 281 278 275 272 269 266 263 260 259 259 259 258 257 256 255 255 255 254 254 251 250 252 249 248 250 254 254
245 250 255 259 260 261 263 268 275 283 290 308 34 83 88 89 82 75 72 68 65 60 53 48 44 41 37 30 22 13 4 356 350 341 328 311 296 289 284 281 279 276 273 270 268 266 265 265 264 263 261 260 259 257 256 254 251 251 255 255 254 255 257
241 248 253 255 259 261 261 263 266 269 274 280 288 297 324 60 68 61 60 55 55 55 49 44 40 36 33 28 22 15 8 1 358 354 348 339 326 313 300 291 285 282 279 277 275 272 271 270 270 269 269 267 266 265 262 259 255 254 256 257 256 257 261
239 243 248 252 255 257 258 260 261 263 266 269 271 277 287 295 305 320 343 1 7 17 20 21 24 23 21 19 14 10 7 3 360 355 349 343 336 330 322 312 301 290 282 276 273 273 272 272 272 272 273 273 272 272 271 268 264 261 260 260 258 259 263
241 241 244 248 251 253 255 256 259 262 264 266 268 269 273 278 283 290 297 304 311 320 329 335 342 347 352 357 357 355 354 354 355 354 351 346 339 333 328 321 316 308 299 287 277 271 268 268 270 270 271 273 273 272 272 272 270 269 269 268 266 265 266
240 240 242 246 248 251 253 254 257 263 265 266 268 269 270 273 275 278 281 285 290 294 301 307 312 317 321 326 330 333 334 335 338 341 341 341 339 335 330 323 318 313 308 302 294 285 277 272 270 270 270 272 274 274 272 272 271 270 270 271 271 270 271
240 239 239 242 244 246 248 250 251 257 262 265 268 269 269 270 274 276 277 278 280 283 288 292 297 301 303 306 310 314 317 319 321 323 324 324 325 326 325 322 319 314 309 304 299 295 290 285 281 278 276 274 275 275 275 274 273 271 270 270 271 272 273
241 240 238 238 240 241 243 248 250 251 255 260 264 267 268 269 272 274 276 280 281 282 284 285 286 288 291 295 298 300 304 306 308 310 310 310 311 311 312 312 312 311 307 302 298 295 292 290 287 284 282 280 278 277 277 276 276 274 272 271 272 273 275
242 243 240 237 238 238 239 245 250 251 250 252 257 261 264 266 269 271 274 280 283 284 284 283 283 283 284 288 292 294 296 297 299 301 302 302 303 303 303 303 304 304 304 302 299 296 292 290 288 286 285 284 283 282 282 281 280 279 277 275 276 277 278
242 243 242 240 240 242 241 241 246 251 253 252 254 257 260 262 265 270 274 277 281 283 284 284 285 284 283 284 287 290 292 292 293 295 296 297 298 299 300 300 301 301 300 301 300 298 295 291 289 287 285 285 284 284 285 285 285 284 282 280 279 279 279
247 247 247 247 247 248 247 245 249 255 257 257 256 255 257 259 263 269 274 276 276 278 280 283 285 285 283 284 285 287 289 290 290 290 291 292 292 293 295 296 298 298 297 297 298 298 297 294 291 288 286 285 284 284 284 285 285 285 285 283 282 281 280
248 249 252 255 254 252 250 250 254 257 256 255 255 254 254 259 263 269 273 274 273 273 274 278 283 285 284 286 287 288 288 287 287 287 288 289 290 290 290 290 292 294 294 294 294 294 295 294 291 289 287 284 283 282 282 282 282 283 284 284 283 282 282
246 246 250 257 258 256 255 252 257 263 260 252 252 255 258 262 265 270 272 271 270 271 271 273 279 284 285 287 288 288 288 287 286 285 285 286 287 289 289 289 289 290 291 291 291 291 292 292 292 290 288 286 284 282 281 280 279 279 280 280 281 281 281
254 252 257 262 261 260 260 257 263 274 272 261 257 261 263 265 266 267 268 266 266 269 270 272 276 279 281 283 285 285 287 287 285 285 285 285 285 285 287 288 288 289 291 291 290 289 288 288 290 290 290 289 287 286 284 282 280 279 279 278 278 278 278
260 259 259 260 259 260 262 262 266 273 275 275 273 269 267 266 265 264 264 262 261 264 267 269 273 277 279 281 283 282 283 283 283 283 285 285 284 283 283 284 285 286 288 290 290 289 287 287 289 291 292 291 289 288 287 285 283 281 279 279 278 278 277
260 259 256 255 257 259 260 262 265 266 268 270 269 267 265 264 264 264 265 264 262 263 266 268 271 273 276 278 280 280 280 280 280 281 281 282 283 283 281 280 281 283 285 286 286 286 285 285 286 288 290 291 291 290 288 287 285 282 280 279 279 279 278
262 260 258 257 257 258 258 260 261 263 264 264 264 265 264 263 263 264 266 266 266 267 269 271 273 274 275 275 276 277 277 278 278 279 280 280 281 282 280 279 279 281 283 285 286 285 284 283 284 284 284 285 286 287 288 288 287 284 282 280 279 279 280
265 263 261 260 259 259 259 259 259 260 262 262 263 263 264 264 264 265 265 265 266 268 269 271 275 277 275 273 272 272 273 275 277 278 279 279 279 279 280 280 279 280 283 284 285 284 284 284 284 284 282 280 279 278 280 283 284 284 282 280 279 279 280
267 265 264 263 262 261 261 261 262 262 262 262 263 263 264 265 266 266 266 265 266 268 268 270 275 275 272 271 270 268 269 271 273 275 275 277 278 280 281 281 280 281 283 284 283 282 284 285 286 285 284 282 279 276 275 277 280 280 279 278 278 277 277
266 266 266 265 265 265 265 265 265 266 266 265 265 264 265 266 267 266 266 265 265 266 269 272 274 271 269 268 266 265 266 269 270 270 271 274 277 280 282 281 280 280 281 282 282 282 284 286 287 286 285 283 281 279 278 279 281 282 280 278 275 274 273
264 265 266 267 267 268 269 270 270 270 269 269 268 267 266 266 267 267 267 264 263 266 271 273 271 269 267 266 265 265 266 268 270 271 273 275 278 280 281 280 279 279 279 280 281 282 284 286 286 286 285 283 281 280 279 281 283 284 283 281 278 276 275
267 267 268 268 269 270 271 272 272 272 271 271 270 270 268 267 267 267 266 265 265 269 272 271 269 268 267 267 268 266 266 269 271 273 275 278 280 280 279 278 278 279 280 282 281 281 283 286 286 285 284 284 283 282 282 283 285 285 284 282 280 279 278
269 271 272 273 273 272 272 273 273 273 273 272 271 270 269 268 267 265 264 266 269 271 270 268 267 267 266 267 268 266 267 269 270 271 275 278 280 280 279 279 280 280 281 281 281 282 284 285 285 285 286 287 287 286 287 287 287 286 285 285 284 283 281
270 274 277 279 279 278 277 276 276 275 275 274 272 271 270 269 267 265 266 268 269 269 267 266 266 265 265 266 266 265 267 269 270 272 274 276 280 283 285 285 284 281 280 280 282 284 286 286 286 287 288 288 288 288 288 288 287 287 287 286 286 285 285
269 273 278 282 284 283 282 280 279 278 277 275 271 269 269 269 268 268 268 267 267 267 266 265 264 264 265 266 266 267 269 270 269 268 268 274 282 287 288 288 286 283 282 284 287 288 287 287 288 289 289 289 289 289 288 287 286 285 285 285 285 285 284
269 272 276 281 284 285 284 282 279 277 276 274 269 267 269 270 269 267 266 265 265 266 265 264 264 264 264 265 267 270 272 271 267 263 266 275 284 286 286 287 286 286 286 288 290 289 289 290 291 290 290 289 288 287 286 285 285 284 284 284 283 283 283
269 270 274 280 284 284 283 280 277 274 271 268 267 268 271 271 269 266 265 264 264 264 264 264 264 264 265 267 269 271 272 272 270 268 270 277 282 284 285 285 286 288 289 290 290 290 290 291 290 290 289 288 286 285 285 284 284 283 283 282 282 281 281
273 274 277 280 282 281 279 277 274 270 265 264 266 269 270 269 267 265 263 261 261 262 263 263 263 264 265 267 267 268 269 271 272 271 273 277 281 282 283 283 286 288 290 289 289 290 290 290 289 289 288 288 287 286 285 284 284 283 283 283 282 282 281
277 279 280 281 280 278 275 272 269 265 262 263 266 268 267 265 264 262 260 258 258 260 263 263 262 261 262 264 264 265 267 269 270 272 274 277 279 280 281 284 286 287 288 288 289 290 291 291 291 291 291 291 291 290 289 288 288 287 286 285 285 285 284
Height
3120 3120 3120 3119 3119 3119 3119 3118 3118 3118 3118 3118 3118 3118 3118 3118 3118 3118 3118 3118 3118 3118 3118 3119 3119 3120 3120 3120 3120 3121 3121 3122 3123 3123 3124 3125 3125 3126 3126 3128 3129 3129 3129 3129 3129 3130 3131 3132 3132 3133 3133 3134 3135 3135 3135 3136 3136 3137 3136 3135 3135 3136 3138
3120 3120 3120 3119 3119 3119 3118 3118 3118 3118 3117 3117 3117 3117 3117 3117 3117 3117 3117 3117 3117 3117 3118 3118 3118 3118 3118 3118 3119 3119 3119 3120 3121 3122 3123 3123 3124 3125 3125 3126 3128 3128 3127 3128 3128 3129 3130 3131 3131 3132 3132 3133 3134 3134 3135 3135 3135 3136 3136 3137 3135 3133 3135
3120 3119 3119 3119 3118 3118 3118 3118 3118 3117 3117 3117 3116 3116 3116 3116 3116 3117 3117 3117 3117 3117 3117 3117 3117 3117 3117 3117 3118 3118 3118 3118 3119 3120 3121 3121 3122 3123 3123 3125 3125 3126 3126 3126 3127 3127 3128 3129 3130 3131 3131 3132 3132 3133 3133 3134 3135 3134 3135 3136 3136 3133 3134
3119 3119 3119 3118 3118 3118 3118 3118 3117 3117 3117 3116 3116 3116 3116 3116 3116 3116 3116 3116 3116 3117 3117 3117 3117 3117 3117 3117 3117 3117 3117 3118 3118 3118 3119 3120 3120 3121 3122 3123 3123 3124 3124 3125 3125 3125 3127 3128 3128 3129 3130 3130 3130 3131 3131 3132 3132 3133 3134 3134 3135 3134 3134
3119 3119 3118 3118 3118 3118 3118 3118 3118 3117 3117 3116 3116 3116 3116 3115 3115 3115 3115 3116 3116 3116 3116 3117 3117 3117 3117 3117 3117 3117 3118 3118 3118 3118 3119 3119 3120 3120 3121 3121 3122 3122 3122 3123 3123 3124 3125 3126 3126 3127 3128 3128 3128 3129 3129 3129 3130 3132 3132 3132 3133 3133 3133
3119 3118 3118 3118 3118 3118 3118 3118 3118 3117 3117 3117 3116 3116 3116 3116 3116 3115 3115 3115 3115 3116 3116 3116 3116 3117 3117 3117 3117 3118 3118 3118 3118 3118 3119 3119 3119 3120 3120 3120 3121 3121 3121 3122 3122 3123 3123 3124 3124 3125 3126 3126 3126 3127 3128 3128 3128 3129 3130 3130 3130 3131 3132
3119 3118 3118 3118 3118 3118 3118 3118 3118 3117 3117 3117 3116 3116 3116 3116 3116 3116 3116 3115 3115 3116 3116 3116 3116 3117 3117 3117 3117 3117 3118 3118 3118 3119 3119 3119 3119 3119 3119 3120 3120 3120 3121 3121 3121 3121 3122 3122 3123 3123 3124 3124 3125 3125 3126 3126 3126 3127 3128 3128 3128 3129 3130
3118 3118 3118 3118 3118 3118 3117 3117 3117 3117 3117 3117 3117 3117 3116 3116 3116 3116 3116 3116 3116 3116 3116 3116 3116 3116 3116 3117 3117 3117 3117 3117 3118 3118 3118 3119 3119 3119 3119 3119 3119 3120 3120 3120 3120 3121 3121 3121 3122 3122 3122 3123 3123 3123 3124 3124 3124 3125 3126 3126 3126 3126 3127
3117 3117 3118 3118 3118 3117 3117 3117 3117 3117 3117 3117 3117 3117 3117 3117 3116 3116 3116 3116 3116 3116 3116 3116 3116 3116 3116 3116 3116 3117 3117 3117 3117 3118 3118 3118 3118 3118 3118 3118 3118 3119 3119 3119 3119 3120 3120 3120 3121 3121 3121 3122 3122 3122 3122 3123 3123 3123 3123 3123 3124 3124 3124
3116 3116 3117 3117 3117 3117 3116 3116 3116 3116 3116 3117 3117 3117 3117 3117 3117 3117 3117 3117 3116 3116 3116 3116 3116 3116 3116 3116 3116 3116 3116 3116 3117 3117 3117 3117 3117 3117 3117 3117 3117 3117 3118 3118 3118 3119 3119 3119 3119 3119 3120 3120 3120 3120 3121 3121 3121 3121 3121 3121 3122 3122 3121
3114 3115 3115 3115 3115 3115 3115 3115 3115 3115 3115 3116 3116 3116 3116 3116 3116 3117 3117 3117 3117 3117 3117 3116 3116 3116 3116 3116 3115 3115 3115 3115 3116 3116 3116 3116 3116 3117 3117 3117 3117 3117 3117 3117 3117 3117 3118 3118 3118 3118 3118 3118 3118 3119 3119 3119 3120 3120 3120 3120 3120 3120 3119
3112 3113 3113 3113 3113 3113 3113 3114 3114 3114 3114 3114 3115 3115 3115 3116 3116 3116 3116 3116 3116 3116 3116 3116 3116 3116 3116 3116 3115 3115 3115 3115 3115 3115 3115 3115 3115 3115 3115 3116 3116 3116 3116 3116 3116 3116 3117 3117 3117 3117 3117 3117 3117 3117 3117 3117 3118 3118 3118 3118 3118 3118 3117
3110 3110 3111 3111 3111 3111 3111 3112 3112 3112 3112 3112 3113 3114 3114 3114 3115 3115 3115 3115 3115 3115 3115 3116 3116 3116 3116 3116 3115 3115 3115 3115 3114 3114 3114 3114 3114 3114 3114 3114 3114 3114 3114 3115 3115 3115 3115 3115 3116 3116 3116 3116 3116 3116 3116 3115 3116 3116 3116 3116 3116 3116 3116
3107 3108 3108 3108 3109 3109 3110 3110 3109 3109 3110 3110 3111 3112 3112 3112 3113 3113 3114 3114 3114 3114 3114 3114 3114 3114 3115 3115 3115 3115 3114 3114 3114 3114 3114 3113 3113 3113 3113 3113 3113 3113 3113 3113 3113 3113 3113 3114 3114 3114 3114 3114 3114 3114 3114 3113 3113 3114 3114 3114 3114 3114 3114
3105 3105 3105 3105 3106 3106 3107 3107 3107 3107 3107 3108 3108 3109 3110 3111 3111 3111 3111 3112 3112 3113 3113 3113 3113 3113 3113 3113 3113 3113 3113 3113 3113 3113 3113 3113 3113 3113 3112 3112 3112 3112 3112 3112 3111 3111 3111 3112 3112 3112 3112 3112 3112 3112 3111 3111 3111 3111 3111 3111 3111 3111 3111
3102 3102 3102 3102 3102 3103 3104 3105 3105 3104 3104 3105 3105 3106 3107 3108 3109 3109 3109 3109 3110 3111 3111 3111 3111 3111 3111 3111 3111 3111 3111 3111 3111 3111 3111 3111 3111 3111 3111 3111 3111 3111 3111 3110 3110 3110 3110 3110 3110 3110 3110 3110 3110 3110 3109 3109 3108 3108 3108 3108 3108 3108 3108
3099 3099 3099 3099 3099 3100 3101 3102 3103 3102 3102 3102 3103 3103 3104 3105 3106 3106 3107 3107 3107 3108 3108 3109 3109 3109 3109 3109 3110 3110 3110 3109 3109 3109 3109 3109 3109 3109 3109 3109 3108 3109 3108 3108 3108 3108 3108 3108 3108 3107 3107 3107 3107 3107 3106 3106 3106 3105 3105 3105 3105 3105 3105
3095 3096 3097 3098 3098 3098 3098 3098 3099 3100 3100 3100 3100 3100 3101 3101 3102 3103 3104 3105 3105 3105 3105 3106 3106 3107 3107 3107 3108 3108 3108 3108 3107 3107 3106 3106 3106 3106 3106 3106 3106 3106 3105 3105 3105 3105 3105 3105 3105 3105 3105 3104 3104 3104 3103 3103 3102 3102 3102 3102 3102 3102 3102
3093 3093 3094 3095 3096 3097 3096 3095 3095 3096 3097 3097 3097 3098 3098 3098 3098 3099 3100 3102 3102 3102 3102 3102 3103 3103 3104 3104 3105 3105 3106 3106 3105 3105 3104 3104 3104 3104 3103 3103 3103 3103 3103 3103 3103 3103 3102 3102 3102 3102 3102 3101 3101 3101 3100 3100 3099 3098 3098 3098 3098 3098 3098
3090 3090 3090 3092 3092 3092 3091 3091 3092 3093 3094 3094 3094 3095 3095 3095 3095 3097 3097 3098 3099 3099 3099 3099 3099 3100 3100 3101 3102 3102 3103 3103 3103 3102 3102 3102 3101 3101 3101 3100 3100 3100 3100 3100 3099 3099 3099 3099 3099 3098 3098 3098 3098 3098 3097 3097 3096 3095 3094 3094 3094 3094 3094
3087 3087 3088 3089 3089 3090 3089 3088 3090 3091 3093 3093 3092 3091 3091 3091 3093 3094 3094 3095 3094 3095 3096 3096 3096 3097 3097 3098 3098 3099 3099 3099 3099 3099 3099 3099 3099 3098 3098 3098 3097 3097 3097 3097 3096 3096 3096 3095 3095 3095 3094 3094 3094 3094 3094 3093 3092 3092 3091 3090 3090 3090 3089
3085 3085 3087 3087 3088 3089 3088 3087 3088 3089 3090 3090 3088 3087 3088 3089 3090 3091 3091 3091 3091 3090 3091 3092 3093 3094 3094 3094 3095 3095 3096 3096 3095 3095 3095 3095 3095 3095 3095 3094 3094 3094 3094 3093 3093 3093 3092 3092 3091 3091 3091 3090 3090 3090 3090 3089 3089 3088 3087 3086 3086 3086 3085
3082 3083 3084 3085 3085 3086 3086 3085 3085 3085 3085 3084 3083 3084 3086 3087 3087 3087 3086 3087 3087 3086 3087 3088 3089 3091 3091 3091 3091 3091 3091 3091 3091 3091 3091 3091 3091 3091 3091 3090 3090 3090 3090 3090 3089 3089 3088 3087 3087 3087 3086 3086 3085 3085 3085 3085 3085 3084 3083 3082 3082 3081 3081
3079 3080 3080 3081 3081 3081 3082 3082 3082 3082 3082 3081 3081 3082 3083 3083 3084 3083 3081 3082 3083 3082 3083 3085 3087 3088 3088 3088 3088 3087 3087 3087 3087 3087 3087 3087 3086 3086 3086 3086 3085 3085 3085 3085 3085 3085 3084 3083 3083 3082 3082 3081 3080 3080 3080 3079 3079 3079 3078 3078 3077 3077 3076
3076 3076 3077 3077 3077 3077 3077 3078 3078 3078 3078 3078 3079 3079 3079 3079 3080 3080 3078 3079 3080 3079 3079 3081 3083 3084 3085 3085 3084 3083 3083 3083 3083 3083 3083 3083 3083 3082 3081 3081 3081 3080 3080 3080 3079 3079 3078 3078 3078 3078 3077 3077 3076 3076 3075 3074 3074 3074 3073 3072 3072 3072 3072
3072 3073 3073 3073 3073 3073 3073 3073 3074 3074 3074 3075 3075 3075 3075 3075 3075 3075 3075 3075 3076 3075 3075 3077 3079 3080 3080 3080 3080 3079 3079 3078 3078 3079 3078 3078 3078 3078 3077 3077 3076 3076 3075 3075 3074 3073 3073 3072 3072 3071 3071 3071 3071 3071 3071 3070 3069 3069 3068 3067 3067 3067 3067
3068 3069 3069 3069 3069 3070 3070 3070 3070 3070 3070 3070 3070 3071 3071 3070 3071 3071 3070 3071 3071 3069 3070 3074 3076 3075 3075 3075 3075 3075 3074 3073 3074 3075 3074 3073 3073 3073 3073 3073 3072 3071 3070 3069 3068 3067 3067 3067 3066 3065 3064 3063 3063 3063 3063 3064 3064 3064 3064 3063 3062 3061 3061
3064 3065 3065 3066 3066 3066 3066 3066 3066 3066 3067 3066 3066 3067 3067 3067 3067 3066 3066 3067 3066 3064 3065 3070 3071 3070 3070 3070 3070 3071 3069 3069 3070 3070 3069 3069 3069 3068 3068 3068 3067 3067 3066 3064 3063 3062 3062 3062 3061 3059 3058 3057 3056 3056 3056 3056 3056 3057 3057 3057 3056 3055 3055
3061 3061 3061 3062 3062 3062 3062 3062 3062 3063 3063 3063 3062 3063 3063 3063 3062 3062 3063 3063 3061 3060 3063 3066 3065 3065 3065 3065 3066 3066 3065 3064 3065 3065 3065 3065 3065 3064 3063 3063 3062 3062 3061 3060 3059 3058 3057 3057 3055 3053 3052 3051 3050 3050 3050 3050 3050 3050 3050 3049 3049 3048 3048
3057 3057 3057 3058 3058 3058 3058 3058 3058 3058 3058 3058 3058 3058 3058 3059 3058 3058 3058 3057 3056 3058 3060 3060 3060 3060 3060 3061 3062 3062 3061 3060 3061 3061 3060 3060 3060 3059 3058 3058 3058 3057 3057 3055 3053 3052 3052 3052 3051 3048 3046 3045 3045 3045 3045 3045 3044 3044 3043 3042 3042 3041 3041
3053 3053 3053 3054 3054 3054 3054 3054 3054 3054 3053 3053 3054 3053 3053 3054 3054 3053 3053 3052 3052 3054 3055 3054 3054 3055 3055 3056 3057 3057 3057 3056 3056 3056 3056 3056 3055 3055 3054 3053 3053 3053 3052 3049 3047 3047 3047 3047 3045 3043 3042 3041 3040 3039 3039 3039 3038 3037 3035 3034 3034 3034 3034
3049 3049 3049 3049 3049 3050 3050 3050 3050 3049 3049 3049 3049 3048 3048 3048 3048 3048 3049 3048 3049 3050 3050 3049 3049 3050 3050 3052 3052 3052 3053 3053 3053 3052 3052 3051 3051 3050 3050 3049 3048 3047 3045 3044 3043 3042 3042 3041 3040 3038 3037 3036 3034 3034 3033 3032 3031 3030 3029 3028 3027 3027 3026
3045 3045 3045 3045 3045 3045 3045 3045 3045 3045 3045 3045 3045 3044 3043 3043 3043 3044 3044 3044 3044 3045 3044 3044 3045 3045 3046 3047 3047 3048 3049 3049 3048 3048 3047 3047 3047 3046 3046 3044 3042 3040 3039 3038 3038 3037 3036 3035 3034 3033 3032 3030 3029 3027 3027 3026 3024 3023 3022 3021 3021 3020 3020
3040 3041 3041 3040 3040 3041 3041 3041 3041 3040 3040 3040 3039 3039 3038 3038 3038 3039 3039 3039 3039 3040 3040 3040 3040 3041 3041 3042 3043 3044 3045 3044 3043 3043 3043 3043 3043 3042 3041 3039 3036 3035 3034 3033 3032 3031 3030 3029 3028 3027 3026 3024 3023 3021 3019 3018 3018 3017 3016 3015 3014 3013 3013
3036 3036 3036 3036 3036 3036 3036 3036 3036 3035 3035 3034 3033 3033 3034 3034 3033 3033 3034 3034 3035 3036 3036 3036 3036 3037 3038 3039 3039 3040 3039 3039 3039 3039 3039 3039 3038 3037 3036 3034 3031 3030 3029 3028 3027 3025 3024 3023 3021 3020 3019 3018 3016 3014 3013 3011 3010 3009 3008 3008 3007 3007 3006
3030 3030 3030 3031 3031 3030 3030 3031 3031 3030 3029 3029 3029 3029 3030 3029 3029 3029 3030 3030 3030 3031 3031 3032 3033 3034 3034 3035 3035 3035 3035 3035 3035 3035 3035 3034 3033 3032 3031 3029 3027 3026 3025 3023 3021 3020 3018 3017 3015 3013 3012 3011 3009 3007 3006 3004 3003 3001 3000 3000 2999 2999 2999
3024 3024 3024 3024 3024 3025 3025 3025 3025 3024 3023 3024 3025 3024 3024 3025 3025 3025 3025 3026 3026 3027 3028 3028 3029 3030 3030 3031 3031 3031 3031 3031 3031 3031 3030 3030 3029 3028 3027 3025 3023 3022 3020 3018 3016 3014 3012 3010 3008 3006 3005 3003 3001 2999 2998 2996 2995 2994 2993 2992 2991 2990 2990